Time,TemperatureF,DewpointF,PressureIn,WindDirection,WindDirectionDegrees,WindSpeedMPH,WindSpeedGustMPH,Humidity,HourlyPrecipIn,Conditions,Clouds,dailyrainin,SoftwareType,DateUTC
2013-07-15 00:01:00,69.0,67.5,29.93,WNW,302,1.0,3.0,95,0.25,,---,0.31,VWS V14.01,2013-07-15 05:01:00,
2013-07-15 00:06:00,69.0,67.8,29.93,WSW,250,0.0,2.0,96,0.21,,---,0.01,VWS V14.01,2013-07-15 05:06:00,
2013-07-15 00:11:00,69.0,67.5,29.93,NW,306,0.0,3.0,95,0.22,,---,0.02,VWS V14.01,2013-07-15 05:11:00,
2013-07-15 00:16:00,68.9,67.4,29.93,NW,326,1.0,3.0,95,0.23,,---,0.03,VWS V14.01,2013-07-15 05:16:00,
2013-07-15 00:21:00,68.9,67.7,29.93,NW,307,0.0,3.0,96,0.23,,---,0.03,VWS V14.01,2013-07-15 05:21:00,
2013-07-15 00:26:00,69.0,67.8,29.93,NW,317,2.0,3.0,96,0.23,,---,0.03,VWS V14.01,2013-07-15 05:26:00,
2013-07-15 00:31:00,69.0,67.8,29.93,SSW,204,0.0,3.0,96,0.23,,---,0.03,VWS V14.01,2013-07-15 05:31:00,
2013-07-15 00:36:00,69.0,67.8,29.93,South,174,0.0,0.0,96,0.12,,---,0.03,VWS V14.01,2013-07-15 05:36:00,
2013-07-15 00:41:00,69.1,67.9,29.93,NW,318,0.0,1.0,96,0.13,,---,0.04,VWS V14.01,2013-07-15 05:41:00,
2013-07-15 00:46:00,69.0,67.8,29.93,NW,318,0.0,1.0,96,0.13,,---,0.04,VWS V14.01,2013-07-15 05:46:00,
2013-07-15 00:51:00,69.0,67.8,29.93,WNW,303,1.0,2.0,96,0.14,,---,0.05,VWS V14.01,2013-07-15 05:51:00,
2013-07-15 00:56:00,68.9,67.7,29.93,NNW,328,0.0,2.0,96,0.14,,---,0.05,VWS V14.01,2013-07-15 05:56:00,
2013-07-15 01:01:00,68.8,67.6,29.93,NW,314,1.0,2.0,96,0.15,,---,0.06,VWS V14.01,2013-07-15 06:01:00,
2013-07-15 01:06:00,68.8,67.6,29.93,NW,316,0.0,4.0,96,0.07,,---,0.07,VWS V14.01,2013-07-15 06:06:00,
2013-07-15 01:11:00,68.7,67.5,29.93,NW,313,2.0,4.0,96,0.08,,---,0.08,VWS V14.01,2013-07-15 06:11:00,
2013-07-15 01:16:00,68.7,67.5,29.94,ENE,69,0.0,4.0,96,0.08,,---,0.08,VWS V14.01,2013-07-15 06:16:00,
2013-07-15 01:21:00,68.7,67.5,29.94,ENE,70,0.0,4.0,96,0.09,,---,0.09,VWS V14.01,2013-07-15 06:21:00,
2013-07-15 01:26:00,68.6,67.4,29.94,NW,319,1.0,4.0,96,0.10,,---,0.10,VWS V14.01,2013-07-15 06:26:00,
2013-07-15 01:31:00,68.7,67.5,29.93,NW,319,0.0,4.0,96,0.10,,---,0.10,VWS V14.01,2013-07-15 06:31:00,
2013-07-15 01:36:00,68.7,67.5,29.93,NW,319,0.0,1.0,96,0.07,,---,0.10,VWS V14.01,2013-07-15 06:36:00,
2013-07-15 01:41:00,68.7,67.5,29.93,NW,319,0.0,1.0,96,0.08,,---,0.11,VWS V14.01,2013-07-15 06:41:00,
2013-07-15 01:46:00,68.8,67.6,29.93,NNE,27,0.0,1.0,96,0.11,,---,0.14,VWS V14.01,2013-07-15 06:46:00,
2013-07-15 01:51:00,68.8,67.6,29.92,NW,321,0.0,2.0,96,0.12,,---,0.15,VWS V14.01,2013-07-15 06:51:00,
2013-07-15 01:56:00,68.7,67.5,29.92,NW,321,0.0,2.0,96,0.13,,---,0.16,VWS V14.01,2013-07-15 06:56:00,
2013-07-15 02:01:00,68.7,67.5,29.92,NW,321,0.0,2.0,96,0.14,,---,0.17,VWS V14.01,2013-07-15 07:01:00,
2013-07-15 02:06:00,68.8,67.6,29.92,NW,323,0.0,1.0,96,0.12,,---,0.18,VWS V14.01,2013-07-15 07:06:00,
2013-07-15 02:11:00,68.8,67.6,29.92,NNE,15,0.0,2.0,96,0.13,,---,0.19,VWS V14.01,2013-07-15 07:11:00,
2013-07-15 02:16:00,68.9,67.7,29.93,NE,52,1.0,2.0,96,0.15,,---,0.21,VWS V14.01,2013-07-15 07:16:00,
2013-07-15 02:21:00,69.0,67.8,29.93,NNE,25,2.0,3.0,96,0.16,,---,0.22,VWS V14.01,2013-07-15 07:21:00,
2013-07-15 02:26:00,69.0,67.8,29.93,NE,53,0.0,3.0,96,0.17,,---,0.23,VWS V14.01,2013-07-15 07:26:00,
2013-07-15 02:31:00,69.0,67.8,29.93,NW,325,0.0,3.0,96,0.19,,---,0.25,VWS V14.01,2013-07-15 07:31:00,
2013-07-15 02:36:00,69.0,67.8,29.93,NE,34,1.0,3.0,96,0.19,,---,0.29,VWS V14.01,2013-07-15 07:36:00,
2013-07-15 02:41:00,69.0,67.8,29.93,East,98,0.0,3.0,96,0.23,,---,0.33,VWS V14.01,2013-07-15 07:41:00,
2013-07-15 02:46:00,68.9,67.7,29.93,ESE,105,3.0,4.0,96,0.28,,---,0.38,VWS V14.01,2013-07-15 07:46:00,
2013-07-15 02:51:00,68.9,67.7,29.94,NE,41,2.0,4.0,96,0.31,,---,0.41,VWS V14.01,2013-07-15 07:51:00,
2013-07-15 02:56:00,69.2,68.3,29.93,ENE,76,4.0,6.0,97,0.36,,---,0.46,VWS V14.01,2013-07-15 07:56:00,
2013-07-15 03:01:00,69.3,68.1,29.92,NE,50,1.0,8.0,96,0.42,,---,0.52,VWS V14.01,2013-07-15 08:01:00,
2013-07-15 03:06:00,69.5,68.6,29.92,ESE,108,6.0,9.0,97,0.39,,---,0.56,VWS V14.01,2013-07-15 08:06:00,
2013-07-15 03:11:00,69.7,68.5,29.92,East,94,3.0,9.0,96,0.44,,---,0.61,VWS V14.01,2013-07-15 08:11:00,
2013-07-15 03:16:00,69.9,68.7,29.92,East,87,3.0,9.0,96,0.47,,---,0.64,VWS V14.01,2013-07-15 08:16:00,
2013-07-15 03:21:00,69.9,68.7,29.92,East,91,2.0,9.0,96,0.48,,---,0.65,VWS V14.01,2013-07-15 08:21:00,
2013-07-15 03:26:00,69.9,68.7,29.92,NNW,333,0.0,9.0,96,0.49,,---,0.66,VWS V14.01,2013-07-15 08:26:00,
2013-07-15 03:31:00,69.9,68.7,29.92,NNE,21,0.0,9.0,96,0.49,,---,0.66,VWS V14.01,2013-07-15 08:31:00,
2013-07-15 03:36:00,69.8,68.6,29.92,East,96,4.0,4.0,96,0.42,,---,0.67,VWS V14.01,2013-07-15 08:36:00,
2013-07-15 03:41:00,69.9,68.7,29.92,East,96,3.0,5.0,96,0.42,,---,0.67,VWS V14.01,2013-07-15 08:41:00,
2013-07-15 03:46:00,70.1,68.9,29.92,ESE,105,3.0,5.0,96,0.42,,---,0.67,VWS V14.01,2013-07-15 08:46:00,
2013-07-15 03:51:00,70.0,68.8,29.92,East,100,3.0,5.0,96,0.43,,---,0.68,VWS V14.01,2013-07-15 08:51:00,
2013-07-15 03:56:00,70.2,69.0,29.92,ESE,114,3.0,6.0,96,0.43,,---,0.68,VWS V14.01,2013-07-15 08:56:00,
2013-07-15 04:01:00,70.3,69.1,29.93,SE,124,3.0,8.0,96,0.43,,---,0.68,VWS V14.01,2013-07-15 09:01:00,
2013-07-15 04:06:00,70.4,69.2,29.93,South,176,5.0,6.0,96,0.16,,---,0.68,VWS V14.01,2013-07-15 09:06:00,
2013-07-15 04:11:00,70.3,68.8,29.93,SSE,155,4.0,9.0,95,0.16,,---,0.68,VWS V14.01,2013-07-15 09:11:00,
2013-07-15 04:16:00,70.4,68.9,29.93,SE,132,3.0,9.0,95,0.16,,---,0.68,VWS V14.01,2013-07-15 09:16:00,
2013-07-15 04:21:00,70.4,68.9,29.94,SSE,155,4.0,9.0,95,0.16,,---,0.68,VWS V14.01,2013-07-15 09:21:00,
2013-07-15 04:26:00,70.5,69.0,29.94,SSE,153,4.0,9.0,95,0.16,,---,0.68,VWS V14.01,2013-07-15 09:26:00,
2013-07-15 04:31:00,70.2,68.7,29.94,SSE,160,6.0,9.0,95,0.16,,---,0.68,VWS V14.01,2013-07-15 09:31:00,
2013-07-15 04:35:00,70.1,68.6,29.95,SSE,151,6.0,8.0,95,0.02,,---,0.68,VWS V14.01,2013-07-15 09:35:00,
2013-07-15 04:40:00,70.1,68.6,29.95,South,183,3.0,8.0,95,0.02,,---,0.68,VWS V14.01,2013-07-15 09:40:00,
2013-07-15 04:45:00,70.1,68.6,29.95,South,174,3.0,9.0,95,0.02,,---,0.68,VWS V14.01,2013-07-15 09:45:00,
2013-07-15 04:50:00,70.2,68.7,29.95,SSE,148,5.0,9.0,95,0.02,,---,0.68,VWS V14.01,2013-07-15 09:50:00,
2013-07-15 04:55:00,70.0,68.5,29.96,SSE,167,4.0,9.0,95,0.02,,---,0.68,VWS V14.01,2013-07-15 09:55:00,
2013-07-15 05:00:00,70.0,68.5,29.95,South,174,7.0,9.0,95,0.02,,---,0.68,VWS V14.01,2013-07-15 10:00:00,
2013-07-15 05:05:00,70.0,68.5,29.96,SSE,153,2.0,8.0,95,0.00,,---,0.68,VWS V14.01,2013-07-15 10:05:00,
2013-07-15 05:10:00,70.0,68.5,29.96,SSE,165,2.0,9.0,95,0.00,,---,0.68,VWS V14.01,2013-07-15 10:10:00,
2013-07-15 05:15:00,69.9,68.4,29.96,South,169,6.0,9.0,95,0.00,,---,0.68,VWS V14.01,2013-07-15 10:15:00,
2013-07-15 05:20:00,69.9,68.4,29.96,SSE,162,7.0,9.0,95,0.00,,---,0.68,VWS V14.01,2013-07-15 10:20:00,
2013-07-15 05:25:00,69.9,68.4,29.96,SSE,156,4.0,9.0,95,0.00,,---,0.68,VWS V14.01,2013-07-15 10:25:00,
2013-07-15 05:30:00,69.9,68.4,29.96,South,174,6.0,9.0,95,0.00,,---,0.68,VWS V14.01,2013-07-15 10:30:00,
2013-07-15 05:35:00,70.0,68.5,29.96,SSE,161,4.0,8.0,95,0.01,,---,0.69,VWS V14.01,2013-07-15 10:35:00,
2013-07-15 05:40:00,69.9,68.1,29.96,SSE,156,6.0,9.0,94,0.02,,---,0.70,VWS V14.01,2013-07-15 10:40:00,
2013-07-15 05:45:00,69.9,68.1,29.96,SSE,159,4.0,9.0,94,0.02,,---,0.70,VWS V14.01,2013-07-15 10:45:00,
2013-07-15 05:50:00,69.8,68.0,29.96,SW,222,3.0,9.0,94,0.03,,---,0.71,VWS V14.01,2013-07-15 10:50:00,
2013-07-15 05:55:00,69.7,67.9,29.96,South,181,2.0,9.0,94,0.04,,---,0.72,VWS V14.01,2013-07-15 10:55:00,
2013-07-15 06:00:00,69.6,67.8,29.96,South,177,3.0,9.0,94,0.05,,---,0.73,VWS V14.01,2013-07-15 11:00:00,
2013-07-15 06:05:00,69.5,67.7,29.96,SW,221,4.0,8.0,94,0.06,,---,0.74,VWS V14.01,2013-07-15 11:05:00,
2013-07-15 06:10:00,69.4,67.6,29.96,SSE,165,4.0,8.0,94,0.07,,---,0.75,VWS V14.01,2013-07-15 11:10:00,
2013-07-15 06:15:00,69.4,67.6,29.96,South,174,2.0,8.0,94,0.08,,---,0.76,VWS V14.01,2013-07-15 11:15:00,
2013-07-15 06:20:00,69.3,67.2,29.96,SSE,153,2.0,8.0,93,0.09,,---,0.77,VWS V14.01,2013-07-15 11:20:00,
2013-07-15 06:25:00,69.3,67.5,29.97,SW,214,1.0,8.0,94,0.09,,---,0.77,VWS V14.01,2013-07-15 11:25:00,
2013-07-15 06:30:00,69.2,67.4,29.97,SSE,167,0.0,8.0,94,0.10,,---,0.78,VWS V14.01,2013-07-15 11:30:00,
2013-07-15 06:35:00,69.2,67.4,29.97,SSE,160,0.0,2.0,94,0.11,,---,0.79,VWS V14.01,2013-07-15 11:35:00,
2013-07-15 06:40:00,69.1,67.3,29.97,SSE,159,1.0,3.0,94,0.11,,---,0.79,VWS V14.01,2013-07-15 11:40:00,
2013-07-15 06:45:00,69.1,67.3,29.97,SSE,166,0.0,3.0,94,0.12,,---,0.80,VWS V14.01,2013-07-15 11:45:00,
2013-07-15 06:50:00,69.2,67.4,29.98,SSW,210,0.0,3.0,94,0.12,,---,0.80,VWS V14.01,2013-07-15 11:50:00,
2013-07-15 06:55:00,69.2,67.7,29.98,SSW,210,0.0,3.0,95,0.12,,---,0.80,VWS V14.01,2013-07-15 11:55:00,
2013-07-15 07:00:00,69.2,67.4,29.99,SSW,210,0.0,3.0,94,0.13,,---,0.81,VWS V14.01,2013-07-15 12:00:00,
2013-07-15 07:05:00,69.2,67.7,29.99,SSW,210,0.0,0.0,95,0.08,,---,0.81,VWS V14.01,2013-07-15 12:05:00,
2013-07-15 07:10:00,69.2,67.7,29.99,SSW,211,0.0,0.0,95,0.09,,---,0.82,VWS V14.01,2013-07-15 12:10:00,
2013-07-15 07:15:00,69.2,67.7,29.99,SSW,211,0.0,0.0,95,0.09,,---,0.82,VWS V14.01,2013-07-15 12:15:00,
2013-07-15 07:20:00,69.1,67.6,30.00,SSW,211,0.0,0.0,95,0.09,,---,0.82,VWS V14.01,2013-07-15 12:20:00,
2013-07-15 07:25:00,69.1,67.6,30.00,SSW,211,0.0,0.0,95,0.10,,---,0.83,VWS V14.01,2013-07-15 12:25:00,
2013-07-15 07:30:00,69.1,67.6,30.00,SSW,211,0.0,0.0,95,0.10,,---,0.83,VWS V14.01,2013-07-15 12:30:00,
2013-07-15 07:35:00,69.2,67.7,30.01,SSW,211,0.0,0.0,95,0.05,,---,0.83,VWS V14.01,2013-07-15 12:35:00,
2013-07-15 07:40:00,69.1,67.6,30.01,SSE,165,2.0,4.0,95,0.06,,---,0.84,VWS V14.01,2013-07-15 12:40:00,
2013-07-15 07:45:00,69.0,67.5,30.01,South,187,1.0,4.0,95,0.06,,---,0.84,VWS V14.01,2013-07-15 12:45:00,
2013-07-15 07:50:00,69.1,67.6,30.01,SSE,157,1.0,4.0,95,0.06,,---,0.84,VWS V14.01,2013-07-15 12:50:00,
2013-07-15 07:55:00,69.0,67.5,30.01,SSE,158,2.0,4.0,95,0.06,,---,0.84,VWS V14.01,2013-07-15 12:55:00,
2013-07-15 08:00:00,69.0,67.5,30.01,SSE,158,1.0,4.0,95,0.07,,---,0.85,VWS V14.01,2013-07-15 13:00:00,
2013-07-15 08:05:00,69.0,67.5,30.01,SSE,160,0.0,2.0,95,0.04,,---,0.85,VWS V14.01,2013-07-15 13:05:00,
2013-07-15 08:10:00,69.1,67.6,30.01,SSE,158,0.0,2.0,95,0.04,,---,0.85,VWS V14.01,2013-07-15 13:10:00,
2013-07-15 08:15:00,69.0,67.5,30.01,SSE,158,0.0,2.0,95,0.05,,---,0.86,VWS V14.01,2013-07-15 13:15:00,
2013-07-15 08:20:00,69.0,67.5,30.02,SSE,159,0.0,2.0,95,0.05,,---,0.86,VWS V14.01,2013-07-15 13:20:00,
2013-07-15 08:25:00,69.0,67.5,30.02,SSE,163,0.0,2.0,95,0.05,,---,0.86,VWS V14.01,2013-07-15 13:25:00,
2013-07-15 08:30:00,69.1,67.6,30.02,SSE,164,0.0,2.0,95,0.05,,---,0.86,VWS V14.01,2013-07-15 13:30:00,
2013-07-15 08:35:00,69.2,67.7,30.02,SSE,163,0.0,0.0,95,0.03,,---,0.86,VWS V14.01,2013-07-15 13:35:00,
2013-07-15 08:40:00,69.2,67.7,30.02,SSE,163,0.0,0.0,95,0.03,,---,0.86,VWS V14.01,2013-07-15 13:40:00,
2013-07-15 08:45:00,69.3,67.8,30.02,ENE,77,0.0,1.0,95,0.03,,---,0.86,VWS V14.01,2013-07-15 13:45:00,
2013-07-15 08:50:00,69.6,68.1,30.03,East,96,0.0,2.0,95,0.04,,---,0.87,VWS V14.01,2013-07-15 13:50:00,
2013-07-15 08:55:00,69.7,68.2,30.03,SSE,148,0.0,2.0,95,0.04,,---,0.87,VWS V14.01,2013-07-15 13:55:00,
2013-07-15 09:00:00,69.8,68.3,30.03,East,90,0.0,2.0,95,0.04,,---,0.87,VWS V14.01,2013-07-15 14:00:00,
2013-07-15 09:05:00,69.9,68.4,30.03,East,81,1.0,2.0,95,0.02,,---,0.87,VWS V14.01,2013-07-15 14:05:00,
2013-07-15 09:10:00,69.9,68.4,30.03,NE,46,1.0,2.0,95,0.02,,---,0.87,VWS V14.01,2013-07-15 14:10:00,
2013-07-15 09:15:00,69.9,68.4,30.03,ENE,68,0.0,2.0,95,0.02,,---,0.87,VWS V14.01,2013-07-15 14:15:00,
2013-07-15 09:20:00,70.0,68.5,30.03,NE,47,0.0,3.0,95,0.03,,---,0.88,VWS V14.01,2013-07-15 14:20:00,
2013-07-15 09:25:00,69.9,68.1,30.04,ENE,77,0.0,3.0,94,0.03,,---,0.88,VWS V14.01,2013-07-15 14:25:00,
2013-07-15 09:30:00,69.9,68.4,30.04,East,83,1.0,3.0,95,0.03,,---,0.88,VWS V14.01,2013-07-15 14:30:00,
2013-07-15 09:35:00,70.1,68.6,30.04,ENE,71,1.0,2.0,95,0.02,,---,0.88,VWS V14.01,2013-07-15 14:35:00,
2013-07-15 09:40:00,70.0,68.2,30.04,NE,49,1.0,2.0,94,0.02,,---,0.88,VWS V14.01,2013-07-15 14:40:00,
2013-07-15 09:45:00,70.0,68.5,30.04,East,86,0.0,2.0,95,0.02,,---,0.88,VWS V14.01,2013-07-15 14:45:00,
2013-07-15 09:50:00,70.1,68.3,30.04,ENE,71,0.0,2.0,94,0.03,,---,0.89,VWS V14.01,2013-07-15 14:50:00,
2013-07-15 09:56:00,70.1,68.3,30.04,East,88,1.0,2.0,94,0.03,,---,0.89,VWS V14.01,2013-07-15 14:56:00,
2013-07-15 10:01:00,70.2,68.4,30.04,ENE,63,3.0,3.0,94,0.03,,---,0.89,VWS V14.01,2013-07-15 15:01:00,
2013-07-15 10:06:00,70.5,69.0,30.04,East,80,2.0,2.0,95,0.02,,---,0.89,VWS V14.01,2013-07-15 15:06:00,
2013-07-15 10:11:00,70.6,69.1,30.04,NNE,27,2.0,3.0,95,0.02,,---,0.89,VWS V14.01,2013-07-15 15:11:00,
2013-07-15 10:16:00,70.6,69.1,30.04,East,80,3.0,5.0,95,0.02,,---,0.89,VWS V14.01,2013-07-15 15:16:00,
2013-07-15 10:22:00,70.7,69.2,30.04,ENE,70,1.0,5.0,95,0.02,,---,0.89,VWS V14.01,2013-07-15 15:22:00,
2013-07-15 10:27:00,70.7,69.2,30.04,ESE,110,2.0,5.0,95,0.02,,---,0.89,VWS V14.01,2013-07-15 15:27:00,
2013-07-15 10:32:00,70.8,69.3,30.04,East,79,2.0,3.0,95,0.01,,---,0.89,VWS V14.01,2013-07-15 15:32:00,
2013-07-15 10:37:00,70.8,69.3,30.03,ENE,62,1.0,4.0,95,0.02,,---,0.90,VWS V14.01,2013-07-15 15:37:00,
2013-07-15 10:42:00,70.9,69.4,30.04,East,90,2.0,4.0,95,0.02,,---,0.90,VWS V14.01,2013-07-15 15:42:00,
2013-07-15 10:47:00,70.9,69.4,30.04,NNE,23,3.0,4.0,95,0.02,,---,0.90,VWS V14.01,2013-07-15 15:47:00,
2013-07-15 10:52:00,71.1,69.6,30.04,ENE,67,1.0,4.0,95,0.02,,---,0.90,VWS V14.01,2013-07-15 15:52:00,
2013-07-15 10:57:00,71.0,69.5,30.04,East,83,2.0,6.0,95,0.02,,---,0.90,VWS V14.01,2013-07-15 15:57:00,
2013-07-15 11:02:00,71.2,69.7,30.04,East,86,3.0,3.0,95,0.01,,---,0.90,VWS V14.01,2013-07-15 16:02:00,
2013-07-15 11:07:00,71.2,69.7,30.04,ENE,72,2.0,4.0,95,0.01,,---,0.90,VWS V14.01,2013-07-15 16:07:00,
2013-07-15 11:12:00,71.3,69.8,30.04,East,79,1.0,4.0,95,0.01,,---,0.90,VWS V14.01,2013-07-15 16:12:00,
2013-07-15 11:17:00,71.3,69.8,30.04,ENE,69,3.0,5.0,95,0.02,,---,0.91,VWS V14.01,2013-07-15 16:17:00,
2013-07-15 11:22:00,71.4,69.6,30.04,ENE,72,1.0,5.0,94,0.02,,---,0.91,VWS V14.01,2013-07-15 16:22:00,
2013-07-15 11:28:00,71.5,69.7,30.04,East,79,0.0,5.0,94,0.02,,---,0.91,VWS V14.01,2013-07-15 16:28:00,
2013-07-15 11:33:00,71.5,69.7,30.04,East,89,0.0,1.0,94,0.02,,---,0.91,VWS V14.01,2013-07-15 16:33:00,
2013-07-15 11:38:00,71.8,70.0,30.04,East,79,1.0,3.0,94,0.02,,---,0.91,VWS V14.01,2013-07-15 16:38:00,
2013-07-15 11:43:00,71.8,70.0,30.05,ENE,60,2.0,5.0,94,0.02,,---,0.91,VWS V14.01,2013-07-15 16:43:00,
2013-07-15 11:48:00,71.9,70.1,30.05,ENE,77,0.0,5.0,94,0.02,,---,0.91,VWS V14.01,2013-07-15 16:48:00,
2013-07-15 11:53:00,72.1,70.3,30.05,WNW,287,0.0,5.0,94,0.02,,---,0.91,VWS V14.01,2013-07-15 16:53:00,
2013-07-15 11:58:00,72.0,69.9,30.05,ESE,105,1.0,5.0,93,0.03,,---,0.92,VWS V14.01,2013-07-15 16:58:00,
2013-07-15 12:03:00,72.2,70.1,30.05,East,97,1.0,4.0,93,0.02,,---,0.92,VWS V14.01,2013-07-15 17:03:00,
2013-07-15 12:08:00,72.5,70.7,30.05,East,82,1.0,4.0,94,0.02,,---,0.92,VWS V14.01,2013-07-15 17:08:00,
2013-07-15 12:13:00,72.5,70.4,30.05,SE,143,0.0,4.0,93,0.02,,---,0.92,VWS V14.01,2013-07-15 17:13:00,
2013-07-15 12:18:00,72.5,70.4,30.05,ENE,64,0.0,4.0,93,0.02,,---,0.92,VWS V14.01,2013-07-15 17:18:00,
2013-07-15 12:23:00,72.6,70.5,30.05,SE,133,1.0,4.0,93,0.03,,---,0.93,VWS V14.01,2013-07-15 17:23:00,
2013-07-15 12:28:00,72.7,70.6,30.05,East,90,0.0,4.0,93,0.03,,---,0.93,VWS V14.01,2013-07-15 17:28:00,
2013-07-15 12:33:00,72.7,70.2,30.05,ESE,108,1.0,2.0,92,0.02,,---,0.93,VWS V14.01,2013-07-15 17:33:00,
2013-07-15 12:38:00,72.6,70.2,30.05,ENE,77,3.0,4.0,92,0.02,,---,0.93,VWS V14.01,2013-07-15 17:38:00,
2013-07-15 12:43:00,72.7,70.2,30.05,East,87,0.0,5.0,92,0.02,,---,0.93,VWS V14.01,2013-07-15 17:43:00,
2013-07-15 12:48:00,73.0,70.5,30.05,East,101,0.0,5.0,92,0.02,,---,0.93,VWS V14.01,2013-07-15 17:48:00,
2013-07-15 12:53:00,73.1,70.6,30.05,NNE,27,1.0,5.0,92,0.02,,---,0.93,VWS V14.01,2013-07-15 17:53:00,
2013-07-15 12:58:00,73.0,70.2,30.05,NE,44,0.0,5.0,91,0.03,,---,0.94,VWS V14.01,2013-07-15 17:58:00,
2013-07-15 13:03:00,73.2,70.4,30.05,East,86,1.0,4.0,91,0.02,,---,0.94,VWS V14.01,2013-07-15 18:03:00,
2013-07-15 13:08:00,73.4,70.6,30.05,ENE,75,1.0,4.0,91,0.02,,---,0.94,VWS V14.01,2013-07-15 18:08:00,
2013-07-15 13:13:00,73.5,70.4,30.05,ENE,73,0.0,4.0,90,0.02,,---,0.94,VWS V14.01,2013-07-15 18:13:00,
2013-07-15 13:18:00,73.3,70.2,30.05,NNE,27,0.0,4.0,90,0.02,,---,0.94,VWS V14.01,2013-07-15 18:18:00,
2013-07-15 13:24:00,73.3,70.2,30.05,ENE,57,2.0,4.0,90,0.02,,---,0.94,VWS V14.01,2013-07-15 18:24:00,
2013-07-15 13:29:00,73.1,70.0,30.04,NNW,339,0.0,4.0,90,0.02,,---,0.94,VWS V14.01,2013-07-15 18:29:00,
2013-07-15 13:34:00,73.2,70.7,30.04,SE,124,0.0,1.0,92,0.02,,---,0.95,VWS V14.01,2013-07-15 18:34:00,
2013-07-15 13:39:00,73.4,70.9,30.04,WNW,285,0.0,1.0,92,0.02,,---,0.95,VWS V14.01,2013-07-15 18:39:00,
2013-07-15 13:44:00,73.4,70.6,30.04,East,94,2.0,2.0,91,0.03,,---,0.96,VWS V14.01,2013-07-15 18:44:00,
2013-07-15 13:49:00,73.5,71.0,30.04,NNW,332,0.0,2.0,92,0.03,,---,0.96,VWS V14.01,2013-07-15 18:49:00,
2013-07-15 13:54:00,73.5,70.7,30.03,NNE,20,0.0,3.0,91,0.03,,---,0.96,VWS V14.01,2013-07-15 18:54:00,
2013-07-15 13:59:00,73.5,70.4,30.03,East,96,5.0,6.0,90,0.03,,---,0.96,VWS V14.01,2013-07-15 18:59:00,
2013-07-15 14:04:00,73.7,70.9,30.03,North,359,2.0,3.0,91,0.02,,---,0.96,VWS V14.01,2013-07-15 19:04:00,
2013-07-15 14:09:00,73.7,70.3,30.03,NE,39,5.0,5.0,89,0.02,,---,0.96,VWS V14.01,2013-07-15 19:09:00,
2013-07-15 14:14:00,73.8,70.7,30.03,West,267,0.0,5.0,90,0.02,,---,0.96,VWS V14.01,2013-07-15 19:14:00,
2013-07-15 14:19:00,73.9,70.8,30.03,NE,46,0.0,5.0,90,0.02,,---,0.96,VWS V14.01,2013-07-15 19:19:00,
2013-07-15 14:24:00,74.0,70.9,30.03,NNE,31,0.0,5.0,90,0.02,,---,0.96,VWS V14.01,2013-07-15 19:24:00,
2013-07-15 14:29:00,74.0,70.9,30.03,NNE,25,0.0,5.0,90,0.02,,---,0.96,VWS V14.01,2013-07-15 19:29:00,
2013-07-15 14:34:00,74.2,71.1,30.03,ENE,60,0.0,3.0,90,0.01,,---,0.96,VWS V14.01,2013-07-15 19:34:00,
2013-07-15 14:39:00,74.5,71.4,30.03,ENE,75,0.0,3.0,90,0.01,,---,0.96,VWS V14.01,2013-07-15 19:39:00,
2013-07-15 14:45:00,74.8,71.7,30.03,NE,53,3.0,5.0,90,0.01,,---,0.96,VWS V14.01,2013-07-15 19:45:00,
2013-07-15 14:50:00,75.1,71.6,30.03,NE,46,2.0,5.0,89,0.01,,---,0.96,VWS V14.01,2013-07-15 19:50:00,
2013-07-15 14:55:00,75.2,71.4,30.03,ENE,59,0.0,6.0,88,0.01,,---,0.96,VWS V14.01,2013-07-15 19:55:00,
2013-07-15 15:00:00,75.3,71.5,30.03,NNE,31,3.0,9.0,88,0.01,,---,0.96,VWS V14.01,2013-07-15 20:00:00,
2013-07-15 15:06:00,75.5,72.0,30.03,ENE,58,0.0,4.0,89,0.00,,---,0.96,VWS V14.01,2013-07-15 20:06:00,
2013-07-15 15:11:00,75.9,72.4,30.03,ESE,105,0.0,4.0,89,0.00,,---,0.96,VWS V14.01,2013-07-15 20:11:00,
2013-07-15 15:16:00,76.2,72.4,30.03,East,81,0.0,5.0,88,0.00,,---,0.96,VWS V14.01,2013-07-15 20:16:00,
2013-07-15 15:21:00,76.7,72.9,30.02,ENE,70,0.0,5.0,88,0.00,,---,0.96,VWS V14.01,2013-07-15 20:21:00,
2013-07-15 15:26:00,77.1,72.9,30.02,ENE,60,0.0,5.0,87,0.00,,---,0.96,VWS V14.01,2013-07-15 20:26:00,
2013-07-15 15:31:00,77.2,72.7,30.02,ENE,77,0.0,0.0,86,0.00,,---,0.96,VWS V14.01,2013-07-15 20:31:00,
2013-07-15 15:37:00,77.7,73.2,30.02,NE,41,1.0,1.0,86,0.00,,---,0.96,VWS V14.01,2013-07-15 20:37:00,
2013-07-15 15:42:00,77.9,73.0,30.02,NNE,16,0.0,3.0,85,0.00,,---,0.96,VWS V14.01,2013-07-15 20:42:00,
2013-07-15 15:47:00,77.8,72.6,30.02,NE,53,0.0,3.0,84,0.00,,---,0.96,VWS V14.01,2013-07-15 20:47:00,
2013-07-15 15:52:00,77.9,72.7,30.02,NE,51,1.0,4.0,84,0.00,,---,0.96,VWS V14.01,2013-07-15 20:52:00,
2013-07-15 15:57:00,78.0,73.1,30.02,North,352,2.0,4.0,85,0.00,,---,0.96,VWS V14.01,2013-07-15 20:57:00,
2013-07-15 16:02:00,77.9,73.0,30.01,North,351,0.0,0.0,85,0.00,,---,0.96,VWS V14.01,2013-07-15 21:02:00,
2013-07-15 16:07:00,78.1,72.9,30.01,ENE,58,0.0,3.0,84,0.00,,---,0.96,VWS V14.01,2013-07-15 21:07:00,
2013-07-15 16:13:00,78.4,73.5,30.01,North,6,0.0,3.0,85,0.00,,---,0.96,VWS V14.01,2013-07-15 21:13:00,
2013-07-15 16:18:00,78.5,73.6,30.01,East,82,0.0,3.0,85,0.00,,---,0.96,VWS V14.01,2013-07-15 21:18:00,
2013-07-15 16:23:00,78.9,73.7,30.01,North,5,1.0,3.0,84,0.00,,---,0.96,VWS V14.01,2013-07-15 21:23:00,
2013-07-15 16:28:00,78.9,73.7,30.00,North,352,0.0,3.0,84,0.00,,---,0.96,VWS V14.01,2013-07-15 21:28:00,
2013-07-15 16:33:00,79.1,73.8,30.00,NNE,12,0.0,1.0,84,0.00,,---,0.96,VWS V14.01,2013-07-15 21:33:00,
2013-07-15 16:38:00,79.2,73.6,30.00,WSW,242,0.0,2.0,83,0.00,,---,0.96,VWS V14.01,2013-07-15 21:38:00,
2013-07-15 16:43:00,79.3,73.7,30.00,North,350,0.0,3.0,83,0.00,,---,0.96,VWS V14.01,2013-07-15 21:43:00,
2013-07-15 16:48:00,79.5,73.9,30.00,NE,40,0.0,3.0,83,0.00,,---,0.96,VWS V14.01,2013-07-15 21:48:00,
2013-07-15 16:53:00,79.4,73.8,30.00,SE,124,0.0,3.0,83,0.00,,---,0.96,VWS V14.01,2013-07-15 21:53:00,
2013-07-15 16:58:00,79.2,73.2,30.00,ENE,70,0.0,3.0,82,0.00,,---,0.96,VWS V14.01,2013-07-15 21:58:00,
2013-07-15 17:03:00,79.2,73.9,30.00,NNE,25,0.0,1.0,84,0.00,,---,0.96,VWS V14.01,2013-07-15 22:03:00,
2013-07-15 17:08:00,79.2,73.9,30.00,NE,54,0.0,2.0,84,0.00,,---,0.96,VWS V14.01,2013-07-15 22:08:00,
2013-07-15 17:13:00,79.3,74.1,30.00,NW,317,1.0,2.0,84,0.00,,---,0.96,VWS V14.01,2013-07-15 22:13:00,
2013-07-15 17:18:00,79.2,73.6,30.00,NE,41,0.0,2.0,83,0.00,,---,0.96,VWS V14.01,2013-07-15 22:18:00,
2013-07-15 17:23:00,79.3,74.1,30.00,NE,39,0.0,2.0,84,0.00,,---,0.96,VWS V14.01,2013-07-15 22:23:00,
2013-07-15 17:28:00,79.1,73.8,30.00,NE,39,0.0,2.0,84,0.00,,---,0.96,VWS V14.01,2013-07-15 22:28:00,
2013-07-15 17:34:00,78.9,73.7,30.00,East,97,0.0,1.0,84,0.00,,---,0.96,VWS V14.01,2013-07-15 22:34:00,
2013-07-15 17:39:00,78.7,73.5,30.00,North,11,0.0,4.0,84,0.00,,---,0.96,VWS V14.01,2013-07-15 22:39:00,
2013-07-15 17:44:00,78.6,73.7,30.00,NNE,30,0.0,4.0,85,0.00,,---,0.96,VWS V14.01,2013-07-15 22:44:00,
2013-07-15 17:49:00,78.6,73.7,30.01,NNE,29,0.0,4.0,85,0.00,,---,0.96,VWS V14.01,2013-07-15 22:49:00,
2013-07-15 17:54:00,78.6,73.7,30.01,North,6,6.0,6.0,85,0.00,,---,0.96,VWS V14.01,2013-07-15 22:54:00,
2013-07-15 17:59:00,78.6,73.7,30.01,NE,39,1.0,6.0,85,0.00,,---,0.96,VWS V14.01,2013-07-15 22:59:00,
2013-07-15 18:04:00,78.6,74.1,30.01,East,79,2.0,2.0,86,0.00,,---,0.96,VWS V14.01,2013-07-15 23:04:00,
2013-07-15 18:09:00,78.7,74.2,30.00,NE,45,2.0,3.0,86,0.00,,---,0.96,VWS V14.01,2013-07-15 23:09:00,
2013-07-15 18:14:00,78.7,74.2,30.00,NE,42,0.0,4.0,86,0.00,,---,0.96,VWS V14.01,2013-07-15 23:14:00,
2013-07-15 18:19:00,78.6,73.7,30.00,NE,39,0.0,4.0,85,0.00,,---,0.96,VWS V14.01,2013-07-15 23:19:00,
2013-07-15 18:24:00,78.6,74.1,30.00,East,84,1.0,4.0,86,0.00,,---,0.96,VWS V14.01,2013-07-15 23:24:00,
2013-07-15 18:29:00,78.6,74.1,30.01,ENE,61,0.0,4.0,86,0.00,,---,0.96,VWS V14.01,2013-07-15 23:29:00,
2013-07-15 18:34:00,78.7,74.2,30.01,WNW,288,1.0,2.0,86,0.00,,---,0.96,VWS V14.01,2013-07-15 23:34:00,
2013-07-15 18:39:00,78.6,73.7,30.01,North,9,1.0,3.0,85,0.00,,---,0.96,VWS V14.01,2013-07-15 23:39:00,
2013-07-15 18:44:00,78.6,74.1,30.00,NNE,13,0.0,3.0,86,0.00,,---,0.96,VWS V14.01,2013-07-15 23:44:00,
2013-07-15 18:49:00,78.7,74.2,30.01,NNE,13,0.0,3.0,86,0.00,,---,0.96,VWS V14.01,2013-07-15 23:49:00,
2013-07-15 18:54:00,78.7,73.8,30.01,ENE,59,0.0,3.0,85,0.00,,---,0.96,VWS V14.01,2013-07-15 23:54:00,
2013-07-15 18:59:00,78.6,73.7,30.01,NW,311,0.0,3.0,85,0.00,,---,0.96,VWS V14.01,2013-07-15 23:59:00,
2013-07-15 19:04:00,78.5,73.6,30.01,NE,36,0.0,0.0,85,0.00,,---,0.96,VWS V14.01,2013-07-16 00:04:00,
2013-07-15 19:10:00,78.4,73.9,30.01,NE,39,0.0,2.0,86,0.00,,---,0.96,VWS V14.01,2013-07-16 00:10:00,
2013-07-15 19:15:00,78.3,73.8,30.01,NE,42,0.0,2.0,86,0.00,,---,0.96,VWS V14.01,2013-07-16 00:15:00,
2013-07-15 19:20:00,78.2,73.7,30.02,NE,42,0.0,2.0,86,0.00,,---,0.96,VWS V14.01,2013-07-16 00:20:00,
2013-07-15 19:25:00,78.1,73.6,30.02,NE,44,0.0,2.0,86,0.00,,---,0.96,VWS V14.01,2013-07-16 00:25:00,
2013-07-15 19:30:00,78.0,73.8,30.02,NE,44,0.0,2.0,87,0.00,,---,0.96,VWS V14.01,2013-07-16 00:30:00,
2013-07-15 19:35:00,77.9,73.7,30.02,NE,51,1.0,1.0,87,0.00,,---,0.96,VWS V14.01,2013-07-16 00:35:00,
2013-07-15 19:40:00,77.9,73.7,30.02,ENE,57,1.0,3.0,87,0.00,,---,0.96,VWS V14.01,2013-07-16 00:40:00,
2013-07-15 19:45:00,77.8,73.3,30.02,ENE,64,0.0,3.0,86,0.00,,---,0.96,VWS V14.01,2013-07-16 00:45:00,
2013-07-15 19:50:00,77.6,72.4,30.02,ENE,75,2.0,3.0,84,0.00,,---,0.96,VWS V14.01,2013-07-16 00:50:00,
2013-07-15 19:55:00,77.5,72.3,30.02,NE,49,1.0,3.0,84,0.00,,---,0.96,VWS V14.01,2013-07-16 00:55:00,
2013-07-15 20:00:00,77.4,72.2,30.02,NE,44,0.0,3.0,84,0.00,,---,0.96,VWS V14.01,2013-07-16 01:00:00,
2013-07-15 20:05:00,77.2,72.0,30.03,ENE,69,2.0,4.0,84,0.00,,---,0.96,VWS V14.01,2013-07-16 01:05:00,
2013-07-15 20:10:00,77.0,72.2,30.03,NE,56,2.0,5.0,85,0.00,,---,0.96,VWS V14.01,2013-07-16 01:10:00,
2013-07-15 20:15:00,76.8,71.9,30.03,ENE,77,3.0,5.0,85,0.00,,---,0.96,VWS V14.01,2013-07-16 01:15:00,
2013-07-15 20:20:00,76.5,71.7,30.03,ENE,70,2.0,5.0,85,0.00,,---,0.96,VWS V14.01,2013-07-16 01:20:00,
2013-07-15 20:25:00,76.2,71.4,30.03,East,88,2.0,5.0,85,0.00,,---,0.96,VWS V14.01,2013-07-16 01:25:00,
2013-07-15 20:30:00,76.1,71.6,30.03,ENE,73,3.0,5.0,86,0.00,,---,0.96,VWS V14.01,2013-07-16 01:30:00,
2013-07-15 20:35:00,75.9,71.4,30.03,East,90,2.0,4.0,86,0.00,,---,0.96,VWS V14.01,2013-07-16 01:35:00,
2013-07-15 20:40:00,75.8,71.3,30.04,East,100,0.0,4.0,86,0.00,,---,0.96,VWS V14.01,2013-07-16 01:40:00,
2013-07-15 20:45:00,75.7,71.6,30.04,East,85,2.0,4.0,87,0.00,,---,0.96,VWS V14.01,2013-07-16 01:45:00,
2013-07-15 20:51:00,75.5,71.4,30.04,NE,45,1.0,4.0,87,0.00,,---,0.96,VWS V14.01,2013-07-16 01:51:00,
2013-07-15 20:56:00,75.4,71.3,30.05,SE,146,3.0,4.0,87,0.00,,---,0.96,VWS V14.01,2013-07-16 01:56:00,
2013-07-15 21:01:00,75.5,71.7,30.05,SSE,151,5.0,7.0,88,0.01,,---,0.97,VWS V14.01,2013-07-16 02:01:00,
2013-07-15 21:06:00,75.6,72.1,30.05,ESE,114,0.0,7.0,89,0.01,,---,0.97,VWS V14.01,2013-07-16 02:06:00,
2013-07-15 21:11:00,75.6,72.1,30.04,SE,125,0.0,7.0,89,0.02,,---,0.98,VWS V14.01,2013-07-16 02:11:00,
2013-07-15 21:16:00,75.6,72.5,30.04,SE,145,1.0,7.0,90,0.02,,---,0.98,VWS V14.01,2013-07-16 02:16:00,
2013-07-15 21:21:00,75.5,72.4,30.04,ESE,115,1.0,7.0,90,0.02,,---,0.98,VWS V14.01,2013-07-16 02:21:00,
2013-07-15 21:26:00,75.5,72.4,30.04,East,90,1.0,7.0,90,0.02,,---,0.98,VWS V14.01,2013-07-16 02:26:00,
2013-07-15 21:31:00,75.4,72.3,30.04,ENE,77,0.0,0.0,90,0.02,,---,0.98,VWS V14.01,2013-07-16 02:31:00,
2013-07-15 21:37:00,75.1,72.3,30.04,ENE,76,0.0,1.0,91,0.02,,---,0.98,VWS V14.01,2013-07-16 02:37:00,
2013-07-15 21:42:00,74.8,72.3,30.04,ENE,69,0.0,1.0,92,0.02,,---,0.98,VWS V14.01,2013-07-16 02:42:00,
2013-07-15 21:47:00,74.4,71.9,30.04,NE,54,0.0,1.0,92,0.02,,---,0.98,VWS V14.01,2013-07-16 02:47:00,
2013-07-15 21:52:00,74.2,72.1,30.04,NE,54,0.0,1.0,93,0.02,,---,0.98,VWS V14.01,2013-07-16 02:52:00,
2013-07-15 21:57:00,74.1,71.9,30.04,NE,54,0.0,1.0,93,0.02,,---,0.98,VWS V14.01,2013-07-16 02:57:00,
2013-07-15 22:02:00,73.9,71.8,30.04,NE,51,0.0,0.0,93,0.01,,---,0.98,VWS V14.01,2013-07-16 03:02:00,
2013-07-15 22:07:00,73.9,72.1,30.04,NNE,30,0.0,2.0,94,0.01,,---,0.98,VWS V14.01,2013-07-16 03:07:00,
2013-07-15 22:12:00,73.8,72.0,30.04,NNE,30,0.0,2.0,94,0.01,,---,0.98,VWS V14.01,2013-07-16 03:12:00,
2013-07-15 22:17:00,73.8,72.0,30.04,NE,56,1.0,2.0,94,0.01,,---,0.98,VWS V14.01,2013-07-16 03:17:00,
2013-07-15 22:22:00,73.7,71.9,30.04,NE,39,0.0,2.0,94,0.01,,---,0.98,VWS V14.01,2013-07-16 03:22:00,
2013-07-15 22:27:00,73.8,72.0,30.05,NE,34,0.0,3.0,94,0.01,,---,0.98,VWS V14.01,2013-07-16 03:27:00,
2013-07-15 22:32:00,73.8,72.0,30.05,NE,39,0.0,0.0,94,0.00,,---,0.98,VWS V14.01,2013-07-16 03:32:00,
2013-07-15 22:38:00,73.7,71.6,30.06,NE,42,0.0,1.0,93,0.00,,---,0.98,VWS V14.01,2013-07-16 03:38:00,
2013-07-15 22:43:00,73.7,71.6,30.06,ENE,63,1.0,1.0,93,0.00,,---,0.98,VWS V14.01,2013-07-16 03:43:00,
2013-07-15 22:48:00,73.7,71.6,30.06,NE,51,0.0,1.0,93,0.00,,---,0.98,VWS V14.01,2013-07-16 03:48:00,
2013-07-15 22:53:00,73.7,71.6,30.07,ENE,70,0.0,2.0,93,0.00,,---,0.98,VWS V14.01,2013-07-16 03:53:00,
2013-07-15 22:58:00,73.8,71.7,30.07,ENE,77,0.0,2.0,93,0.00,,---,0.98,VWS V14.01,2013-07-16 03:58:00,
2013-07-15 23:01:00,73.9,71.8,30.07,ENE,75,0.0,3.0,93,0.00,,---,0.98,VWS V14.01,2013-07-16 04:01:00,
2013-07-15 23:06:00,74.0,71.5,30.07,ENE,72,2.0,2.0,92,0.00,,---,0.98,VWS V14.01,2013-07-16 04:06:00,
2013-07-15 23:11:00,74.1,71.6,30.07,East,87,2.0,3.0,92,0.00,,---,0.98,VWS V14.01,2013-07-16 04:11:00,
2013-07-15 23:16:00,74.2,71.7,30.08,East,79,0.0,3.0,92,0.00,,---,0.98,VWS V14.01,2013-07-16 04:16:00,
2013-07-15 23:21:00,74.2,71.7,30.08,East,83,1.0,3.0,92,0.00,,---,0.98,VWS V14.01,2013-07-16 04:21:00,
2013-07-15 23:26:00,74.2,71.7,30.07,East,82,1.0,4.0,92,0.00,,---,0.98,VWS V14.01,2013-07-16 04:26:00,
2013-07-15 23:31:00,74.2,71.7,30.08,East,80,0.0,4.0,92,0.00,,---,0.98,VWS V14.01,2013-07-16 04:31:00,
2013-07-15 23:36:00,74.3,71.8,30.08,ESE,104,2.0,3.0,92,0.00,,---,0.98,VWS V14.01,2013-07-16 04:36:00,
2013-07-15 23:41:00,74.3,71.8,30.08,NE,41,1.0,4.0,92,0.00,,---,0.98,VWS V14.01,2013-07-16 04:41:00,
2013-07-15 23:46:00,74.4,71.9,30.08,ENE,74,0.0,4.0,92,0.00,,---,0.98,VWS V14.01,2013-07-16 04:46:00,
2013-07-15 23:51:00,74.3,71.8,30.08,ENE,72,3.0,4.0,92,0.00,,---,0.98,VWS V14.01,2013-07-16 04:51:00,
2013-07-15 23:56:00,74.2,71.7,30.07,ENE,72,0.0,4.0,92,0.00,,---,0.98,VWS V14.01,2013-07-16 04:56:00,